{"data":{"norad_id":60396,"intl_designator":"2024-140T","name":"QIANFAN-18","alt_names":[],"object_type":"PAYLOAD","status":"ACTIVE","operator":null,"country":"PRC","launch_date":"2024-08-06","launch_site_code":"TAISC","launch_vehicle":null,"mission":null,"orbit_class":"UNKNOWN","rcs_meters":null,"size_class":null,"mass_kg":null,"dimensions":null,"purposes":[],"wikipedia_slug":null,"has_3d_model":false,"image_url":null,"decayed_at":null,"tle_current":{"epoch":"2026-05-25T04:06:28.978272Z","epoch_age_seconds":56941,"freshness":"FRESH","line1":"1 60396U 24140T   26145.17116873  .00000079  00000+0  10267-3 0  9991","line2":"2 60396  88.9720 282.0146 0016159  79.9790 280.3184 13.51010999 89591","mean_motion":13.51010999,"eccentricity":0.0016159,"inclination_deg":88.972,"raan_deg":282.0146,"arg_perigee_deg":79.979,"mean_anomaly_deg":280.3184,"bstar":0.00010267,"rev_number":8959,"period_min":106.58684504167,"perigee_km":1056.5080805736,"apogee_km":1080.5742550764,"semimajor_km":7446.678167825,"source":"CELESTRAK","updated_at":"2026-05-25T13:38:02.044332Z"}}}